TimeEST,TemperatureF,Dew PointF,Humidity,Sea Level PressureIn,VisibilityMPH,Wind Direction,Wind SpeedMPH,Gust SpeedMPH,PrecipitationIn,Events,Conditions,WindDirDegrees,DateUTC
12:53 AM,17.1,-0.0,47,30.07,10.0,West,12.7,24.2,N/A,,Partly Cloudy,280,2013-02-18 05:53:00
1:53 AM,17.1,1.9,52,30.07,10.0,WNW,18.4,31.1,N/A,,Clear,300,2013-02-18 06:53:00
2:53 AM,17.1,-0.0,47,30.09,10.0,WNW,16.1,24.2,N/A,,Clear,300,2013-02-18 07:53:00
3:53 AM,17.1,3.0,54,30.12,10.0,NW,18.4,27.6,N/A,,Clear,320,2013-02-18 08:53:00
4:53 AM,16.0,-0.9,47,30.15,10.0,NW,9.2,-,N/A,,Clear,310,2013-02-18 09:53:00
5:53 AM,16.0,-0.0,49,30.19,10.0,NW,8.1,-,N/A,,Clear,310,2013-02-18 10:53:00
6:53 AM,16.0,1.9,54,30.22,10.0,NW,8.1,-,N/A,,Clear,310,2013-02-18 11:53:00
7:53 AM,17.1,-0.0,47,30.23,10.0,NW,9.2,18.4,N/A,,Clear,320,2013-02-18 12:53:00
8:53 AM,19.9,1.9,46,30.25,10.0,NW,15.0,23.0,N/A,,Clear,310,2013-02-18 13:53:00
9:53 AM,21.9,1.9,42,30.26,10.0,NW,16.1,26.5,N/A,,Clear,310,2013-02-18 14:53:00
10:53 AM,26.1,1.9,35,30.27,10.0,WNW,13.8,23.0,N/A,,Clear,290,2013-02-18 15:53:00
11:53 AM,28.0,3.0,34,30.27,10.0,WNW,16.1,24.2,N/A,,Clear,290,2013-02-18 16:53:00
12:53 PM,30.0,5.0,35,30.25,10.0,West,13.8,21.9,N/A,,Clear,270,2013-02-18 17:53:00
1:53 PM,32.0,3.0,29,30.22,10.0,NW,12.7,17.3,N/A,,Clear,310,2013-02-18 18:53:00
2:53 PM,34.0,3.9,28,30.21,10.0,NW,13.8,19.6,N/A,,Clear,310,2013-02-18 19:53:00
3:53 PM,35.1,3.0,26,30.21,10.0,WNW,8.1,-,N/A,,Clear,290,2013-02-18 20:53:00
4:53 PM,35.1,1.9,25,30.21,10.0,West,9.2,-,N/A,,Clear,280,2013-02-18 21:53:00
5:53 PM,33.1,5.0,31,30.22,10.0,WSW,4.6,-,N/A,,Clear,240,2013-02-18 22:53:00
6:53 PM,30.9,7.0,37,30.23,10.0,Calm,Calm,-,N/A,,Clear,0,2013-02-18 23:53:00
7:53 PM,30.9,7.0,37,30.23,10.0,SW,3.5,-,N/A,,Clear,220,2013-02-19 00:53:00
8:53 PM,30.0,9.0,41,30.23,10.0,SW,3.5,-,N/A,,Clear,220,2013-02-19 01:53:00
9:53 PM,30.0,9.0,41,30.23,10.0,SW,3.5,-,N/A,,Clear,220,2013-02-19 02:53:00
10:53 PM,30.0,9.0,41,30.23,10.0,SW,4.6,-,N/A,,Mostly Cloudy,220,2013-02-19 03:53:00
11:53 PM,30.9,10.0,42,30.22,10.0,Variable,3.5,-,N/A,,Partly Cloudy,0,2013-02-19 04:53:00